Colorado City, AZ

6:12 PM MST on November 22, 2019 (GMT -0700)
Colorado City Municipal

Weather History for KAZC - September, 2019

Change the Weather History Date:

Tuesday, September 17, 2019

  Actual Average (KSGU) Record (KSGU)
Temperature  
Mean Temperature 64 °F -  
Max Temperature 82 °F 92 °F 104 °F (1935)
Min Temperature 46 °F 57 °F 42 °F (1954)
Degree Days  
Heating Degree Days 1    
Growing Degree Days 14 (Base 50)    
Moisture  
Dew Point 31 °F    
Average Humidity 26    
Maximum Humidity 49    
Minimum Humidity 10    
Precipitation  
Precipitation 0.00 in - - ()
Sea Level Pressure  
Sea Level Pressure 30.07 in    
Wind  
Wind Speed 7 mph (WSW)    
Max Wind Speed 22 mph    
Max Gust Speed 29 mph    
Visibility 10 miles    
Events      
Averages and records for this station are not official NWS values.
T = Trace of Precipitation, MM = Missing Value Source: NWS Daily Summary

Daily Weather History Graph

Daily Weather History Graph

Search for Another Location

Airport or City:

Astronomy

Sep. 17, 2019 Rise Set
Actual Time 6:15 AM MST 6:36 PM MST
Civil Twilight 5:49 AM MST 7:02 PM MST
Nautical Twilight 5:19 AM MST 7:33 PM MST
Astronomical Twilight 4:48 AM MST 8:04 PM MST
Moon 8:46 PM MST (9/17) 9:20 AM MST (9/17)
Length of Visible Light 13h 13m
Length of Day
12h 21m
Waning Gibbous, 88% of the Moon is Illuminated
Sep 17
Waning Gibbous
Sep 21
Last Quarter
Sep 28
New
Oct 5
First Quarter
Oct 13
Full

Hourly Weather History & Observations

Time (MST) Temp. Windchill Dew Point Humidity Pressure Visibility Wind Dir Wind Speed Gust Speed Precip Events Conditions
12:15 AM 64.4 °F - 35.6 °F 34% 30.00 in - East 4.6 mph - N/A   Mostly Cloudy
12:35 AM 66.2 °F - 37.4 °F 35% 30.00 in - ENE 5.8 mph - N/A   Overcast
12:55 AM 66.2 °F - 35.6 °F 32% 30.00 in - Calm Calm - N/A   Scattered Clouds
1:15 AM 62.6 °F - 37.4 °F 39% 30.00 in - NE 5.8 mph - N/A   Scattered Clouds
1:35 AM 62.6 °F - 37.4 °F 39% 30.01 in - Calm Calm - N/A   Clear
2:15 AM 68.0 °F - 35.6 °F 30% 30.01 in - North 3.5 mph - N/A   Clear
2:35 AM 64.4 °F - 35.6 °F 34% 30.01 in - Calm Calm - N/A   Clear
2:55 AM 60.8 °F - 35.6 °F 39% 30.02 in - Calm Calm - N/A   Scattered Clouds
3:15 AM 64.4 °F - 35.6 °F 34% 30.02 in - Calm Calm - N/A   Mostly Cloudy
3:35 AM 66.2 °F - 35.6 °F 32% 30.02 in - SSE 3.5 mph - N/A   Overcast
3:55 AM 64.4 °F - 35.6 °F 34% 30.03 in - SE 5.8 mph - N/A   Overcast
4:15 AM 62.6 °F - 35.6 °F 37% 30.03 in - SE 6.9 mph - N/A   Mostly Cloudy
4:35 AM 62.6 °F - 35.6 °F 37% 30.04 in - ESE 6.9 mph - N/A   Mostly Cloudy
4:55 AM 64.4 °F - 35.6 °F 34% 30.04 in - ESE 4.6 mph - N/A   Overcast
5:15 AM 64.4 °F - 35.6 °F 34% 30.05 in - East 4.6 mph - N/A   Overcast
5:35 AM 66.2 °F - 37.4 °F 35% 30.05 in - SE 4.6 mph - N/A   Overcast
5:55 AM 64.4 °F - 41.0 °F 42% 30.05 in - Calm Calm - N/A   Overcast
6:15 AM 64.4 °F - 39.2 °F 40% 30.06 in 10.0 mi Calm Calm - N/A   Overcast
6:35 AM 64.4 °F - 42.8 °F 45% 30.07 in 10.0 mi SW 3.5 mph - N/A   Overcast
6:55 AM 66.2 °F - 44.6 °F 46% 30.08 in 10.0 mi Calm Calm - N/A   Overcast
7:15 AM 66.2 °F - 44.6 °F 46% 30.08 in 10.0 mi SW 3.5 mph - N/A   Scattered Clouds
7:35 AM 69.8 °F - 50.0 °F 49% 30.09 in 10.0 mi SW 4.6 mph - N/A   Scattered Clouds
7:55 AM 71.6 °F - 42.8 °F 35% 30.09 in 10.0 mi WSW 9.2 mph - N/A   Scattered Clouds
8:15 AM 73.4 °F - 41.0 °F 31% 30.11 in 10.0 mi West 9.2 mph - N/A   Clear
8:35 AM 73.4 °F - 42.8 °F 33% 30.11 in 10.0 mi SW 9.2 mph - N/A   Clear
8:55 AM 73.4 °F - 42.8 °F 33% 30.11 in 10.0 mi WSW 10.4 mph 16.1 mph N/A   Clear
9:15 AM 75.2 °F - 42.8 °F 31% 30.12 in 10.0 mi WSW 6.9 mph 17.3 mph N/A   Clear
9:35 AM 77.0 °F - 42.8 °F 29% 30.12 in 10.0 mi SW 11.5 mph 17.3 mph N/A   Clear
9:55 AM 77.0 °F - 42.8 °F 29% 30.12 in 10.0 mi SW 8.1 mph 21.9 mph N/A   Scattered Clouds
10:15 AM 77.0 °F - 42.8 °F 29% 30.13 in 10.0 mi West 11.5 mph 21.9 mph N/A   Clear
10:35 AM 77.0 °F - 41.0 °F 28% 30.13 in 10.0 mi WSW 15.0 mph 20.7 mph N/A   Clear
10:55 AM 78.8 °F - 37.4 °F 23% 30.13 in 10.0 mi WSW 17.3 mph 24.2 mph N/A   Clear
11:15 AM 78.8 °F - 35.6 °F 21% 30.12 in 10.0 mi West 17.3 mph 24.2 mph N/A   Clear
11:35 AM 78.8 °F - 35.6 °F 21% 30.12 in 10.0 mi West 16.1 mph 24.2 mph N/A   Clear
11:55 AM 80.6 °F - 32.0 °F 17% 30.12 in 10.0 mi WSW 17.3 mph 24.2 mph N/A   Clear
12:15 PM 80.6 °F - 32.0 °F 17% 30.11 in 10.0 mi WSW 17.3 mph 25.3 mph N/A   Clear
12:35 PM 80.6 °F - 32.0 °F 17% 30.11 in 10.0 mi West 15.0 mph 23.0 mph N/A   Clear
12:55 PM 82.4 °F - 30.2 °F 15% 30.11 in 10.0 mi West 11.5 mph 23.0 mph N/A   Clear
1:15 PM 82.4 °F - 28.4 °F 14% 30.11 in 10.0 mi WSW 20.7 mph 28.8 mph N/A   Clear
1:35 PM 82.4 °F - 26.6 °F 13% 30.10 in 10.0 mi West 16.1 mph 28.8 mph N/A   Clear
1:55 PM 82.4 °F - 24.8 °F 12% 30.09 in 10.0 mi West 19.6 mph 25.3 mph N/A   Clear
2:15 PM 82.4 °F - 21.2 °F 10% 30.09 in 10.0 mi West 21.9 mph 28.8 mph N/A   Clear
2:35 PM 82.4 °F - 23.0 °F 11% 30.09 in 10.0 mi WSW 20.7 mph 27.6 mph N/A   Clear
2:55 PM 82.4 °F - 24.8 °F 12% 30.08 in 10.0 mi West 16.1 mph 24.2 mph N/A   Clear
3:15 PM 82.4 °F - 23.0 °F 11% 30.07 in 10.0 mi West 19.6 mph 26.5 mph N/A   Clear
3:35 PM 82.4 °F - 23.0 °F 11% 30.07 in 10.0 mi West 17.3 mph 27.6 mph N/A   Clear
3:55 PM 82.4 °F - 23.0 °F 11% 30.07 in 10.0 mi West 13.8 mph 24.2 mph N/A   Clear
4:15 PM 82.4 °F - 23.0 °F 11% 30.06 in 10.0 mi West 16.1 mph 23.0 mph N/A   Clear
4:35 PM 82.4 °F - 24.8 °F 12% 30.06 in 10.0 mi WSW 15.0 mph 19.6 mph N/A   Clear
4:55 PM 80.6 °F - 23.0 °F 12% 30.06 in 10.0 mi WSW 12.7 mph 20.7 mph N/A   Clear
5:15 PM 80.6 °F - 23.0 °F 12% 30.06 in 10.0 mi WNW 12.7 mph 18.4 mph N/A   Clear
5:35 PM 80.6 °F - 23.0 °F 12% 30.06 in 10.0 mi West 11.5 mph 19.6 mph N/A   Clear
5:55 PM 78.8 °F - 23.0 °F 13% 30.05 in 10.0 mi West 11.5 mph 16.1 mph N/A   Clear
6:15 PM 77.0 °F - 23.0 °F 13% 30.05 in 10.0 mi West 8.1 mph - N/A   Clear
6:35 PM 73.4 °F - 21.2 °F 14% 30.05 in 10.0 mi West 4.6 mph - N/A   Clear
6:55 PM 71.6 °F - 21.2 °F 15% 30.05 in 10.0 mi WNW 5.8 mph - N/A   Clear
7:15 PM 69.8 °F - 21.2 °F 16% 30.06 in - West 5.8 mph - N/A   Clear
7:35 PM 64.4 °F - 21.2 °F 19% 30.07 in - NW 5.8 mph - N/A   Clear
7:55 PM 66.2 °F - 23.0 °F 19% 30.08 in - NNW 6.9 mph - N/A   Clear
8:15 PM 64.4 °F - 23.0 °F 21% 30.08 in - NNW 6.9 mph - N/A   Clear
8:35 PM 62.6 °F - 24.8 °F 24% 30.09 in - NNW 4.6 mph - N/A   Clear
8:55 PM 62.6 °F - 24.8 °F 24% 30.09 in - NNW 3.5 mph - N/A   Clear
9:15 PM 59.0 °F - 23.0 °F 25% 30.09 in - Calm Calm - N/A   Clear
9:35 PM 59.0 °F - 23.0 °F 25% 30.09 in - Calm Calm - N/A   Clear
9:55 PM 57.2 °F - 23.0 °F 27% 30.09 in - NW 3.5 mph - N/A   Clear
10:15 PM 51.8 °F - 21.2 °F 30% 30.09 in - Calm Calm - N/A   Clear
10:35 PM 50.0 °F - 23.0 °F 35% 30.09 in - Calm Calm - N/A   Clear
10:55 PM 50.0 °F - 23.0 °F 35% 30.09 in - ESE 4.6 mph - N/A   Clear
11:15 PM 48.2 °F - 21.2 °F 34% 30.09 in - SE 4.6 mph - N/A   Clear
11:35 PM 46.4 °F 44.3 °F 21.2 °F 37% 30.08 in - SE 4.6 mph - N/A   Clear
11:55 PM 46.4 °F 44.3 °F 21.2 °F 37% 30.08 in - SE 4.6 mph - N/A   Clear